Simultaneous Nadir Overpasses (SNOs) Predictions

Prediction of SNOs between METOP-B and TERRA Satellite Orbit:

Table of predicted SNOs for the next 14.0 days since TLE Epoch: 6/16/2018
Index Date (METOP-B) Time (METOP-B) Lat,Lon (METOP-B) SZA (METOP-B ) Date (TERRA) Time (TERRA) Lat,Lon (TERRA) SZA (TERRA ) Distance(km) Time Diff (sec)
1 06/16/2018 02:27:38 81.35,-169.18 60.97 06/16/2018 02:28:50 81.34,-169.20 61.00 0.79 72
2 06/16/2018 03:18:17 -81.35, -1.11 118.95 06/16/2018 03:18:16 -81.36, -1.23 118.96 2.00 1
3 06/16/2018 04:08:28 81.29, 177.95 62.51 06/16/2018 04:07:20 81.70, 175.34 62.32 62.40 68
4 06/18/2018 22:01:58 81.35,-102.70 60.88 06/18/2018 22:03:06 81.34,-102.76 60.90 1.29 68
5 06/18/2018 22:52:37 -81.36, 65.38 119.03 06/18/2018 22:52:32 -81.36, 65.24 119.05 2.33 5
6 06/21/2018 17:36:17 81.35, -36.23 60.85 06/21/2018 17:37:21 81.34, -36.34 60.86 2.22 64
7 06/21/2018 18:26:56 -81.36, 131.85 119.06 06/21/2018 18:26:47 -81.36, 131.68 119.09 2.86 9
8 06/24/2018 13:10:36 81.35, 30.62 60.92 06/24/2018 13:11:36 81.36, 30.42 60.93 3.36 60
9 06/24/2018 14:01:17 -81.35,-162.10 119.09 06/24/2018 14:01:03 -81.36,-161.92 119.07 3.02 14
10 06/27/2018 08:44:57 81.35, 96.66 60.94 06/27/2018 08:45:52 81.35, 96.77 60.98 1.92 55




NCC Satellite Simultaneous Nadir Overpasses (SNOs) Prediction Service
